Weather History for EGBJ - November, 2012

Change the Weather History Date:

Friday, November 30, 2012

  Actual Average Record
Temperature  
Mean Temperature 38 °F -  
Max Temperature 42 °F 44 °F 59 °F (2001)
Min Temperature 33 °F 39 °F 30 °F (2010)
Degree Days  
Heating Degree Days 28    
Moisture  
Dew Point 34 °F    
Average Humidity 83    
Maximum Humidity 93    
Minimum Humidity 70    
Precipitation  
Precipitation 0.00 in - - ()
Sea Level Pressure  
Sea Level Pressure 29.89 in    
Wind  
Wind Speed 1 mph ()    
Max Wind Speed 4 mph    
Max Gust Speed -    
Visibility 6.2 miles    
Events      
Averages and records for this station are not official NWS values.
T = Trace of Precipitation, MM = Missing Value Source: Averaged Metar Reports

Daily Weather History Graph

Daily Weather History Graph

Search for Another Location

Airport or City:

Trip Planner

Search our weather history database for the weather conditions in past years. The results will help you decide how hot, cold, wet, or windy it might be!

Date:

Astronomy

Nov. 30, 2012 Rise Set
Actual Time 7:52 AM GMT 4:01 PM GMT
Civil Twilight 7:13 AM GMT 4:41 PM GMT
Nautical Twilight 6:30 AM GMT 5:23 PM GMT
Astronomical Twilight 5:50 AM GMT 6:04 PM GMT
Moon 5:44 PM GMT (11/30) 9:14 AM GMT (11/30)
Length of Visible Light 9h 27m
Length of Day
8h 08m
Full, 97% of the Moon is Illuminated
Nov 30
Full
Dec 6
Last Quarter
Dec 13
New
Dec 20
First Quarter
Dec 28
Full

Hourly Weather History & Observations

Time (GMT) Temp. Windchill Dew Point Humidity Pressure Visibility Wind Dir Wind Speed Gust Speed Precip Events Conditions
7:50 AM 33.8 °F - 30.2 °F 87% 29.86 in 6.2 mi Calm Calm - N/A   Mostly Cloudy
8:20 AM 33.8 °F - 32.0 °F 93% 29.86 in 6.2 mi Calm Calm - N/A   Mostly Cloudy
8:50 AM 33.8 °F - 32.0 °F 93% 29.86 in 6.2 mi Calm Calm - N/A   Scattered Clouds
9:20 AM 35.6 °F - 32.0 °F 87% 29.86 in 6.2 mi Calm Calm - N/A   Partly Cloudy
9:50 AM 37.4 °F - 33.8 °F 87% 29.89 in 6.2 mi WSW 2.3 mph - N/A   Partly Cloudy
10:20 AM 37.4 °F - 32.0 °F 81% 29.89 in 6.2 mi Calm Calm - N/A   Partly Cloudy
10:50 AM 39.2 °F - 33.8 °F 81% 29.89 in 6.2 mi WSW 2.3 mph - N/A   Scattered Clouds
11:20 AM 39.2 °F - 33.8 °F 81% 29.89 in 6.2 mi WSW 2.3 mph - N/A   Scattered Clouds
11:50 AM 39.2 °F 37.0 °F 33.8 °F 81% 29.89 in 6.2 mi WSW 3.5 mph - N/A   Scattered Clouds
12:20 PM 41.0 °F - 33.8 °F 76% 29.89 in 6.2 mi SW 2.3 mph - N/A   Partly Cloudy
12:50 PM 41.0 °F - 33.8 °F 76% 29.89 in 6.2 mi Calm Calm - N/A   Partly Cloudy
1:20 PM 42.8 °F - 33.8 °F 70% 29.89 in 6.2 mi Calm Calm - N/A   Partly Cloudy
1:50 PM 41.0 °F - 33.8 °F 76% 29.86 in 6.2 mi WSW 2.3 mph - N/A   Partly Cloudy
2:20 PM 42.8 °F 41.1 °F 35.6 °F 76% 29.89 in 6.2 mi SW 3.5 mph - N/A   Scattered Clouds
2:50 PM 41.0 °F - 35.6 °F 81% 29.89 in 6.2 mi West 2.3 mph - N/A   Scattered Clouds
3:20 PM 41.0 °F - 35.6 °F 81% 29.89 in 6.2 mi West 2.3 mph - N/A   Scattered Clouds
3:50 PM 39.2 °F - 33.8 °F 81% 29.89 in 6.2 mi WSW 2.3 mph - N/A   Scattered Clouds
4:20 PM 39.2 °F - 33.8 °F 81% 29.89 in 6.2 mi SW 2.3 mph - N/A   Scattered Clouds
4:50 PM 39.2 °F - 33.8 °F 81% 29.89 in 6.2 mi SW 2.3 mph - N/A   Scattered Clouds
5:20 PM 37.4 °F - 33.8 °F 87% 29.92 in 6.2 mi Calm Calm - N/A   Scattered Clouds
5:50 PM 37.4 °F - 33.8 °F 87% 29.92 in 6.2 mi Calm Calm - N/A   Partly Cloudy
6:20 PM 37.4 °F - 33.8 °F 87% 29.92 in 6.2 mi Calm Calm - N/A   Partly Cloudy
6:50 PM 35.6 °F - 33.8 °F 93% 29.92 in 6.2 mi Calm Calm - N/A   Partly Cloudy